This demonstration page uses our WeatherBlox Daily Observations layout. Learn more.

Left ArrowRight Arrow

Hourly Observations for October 31, 2016

Temp ( °F °C ) Dew Point ( °F °C ) Humidity (%) Winds ( mph kmh ) Pressure ( in mb ) Visibility ( mi km ) Precip ( " mm )
12:53 am 00:53 Clear 64 17.8 48 8.9 56 56 SE 10 17 30.00 1016 10 16 0.00 0.00
1:53 am 01:53 Clear 62 16.7 49 9.4 62 62 SE 7 11 29.99 1016 10 16 0.00 0.00
2:53 am 02:53 Clear 60 15.6 50 10 70 70 SE 8 13 29.98 1015 10 16 0.00 0.00
3:53 am 03:53 Clear 57 13.9 49 9.4 74 74 E 5 7 29.96 1015 10 16 0.00 0.00
4:53 am 04:53 Clear 59 15 52 11.1 78 78 ESE 8 13 29.94 1014 10 16 0.00 0.00
5:53 am 05:53 Clear 58 14.4 53 11.7 84 84 ESE 8 13 29.93 1014 10 16 0.00 0.00
6:53 am 06:53 Clear 57 13.9 52 11.1 83 83 ESE 7 11 29.94 1014 10 16 0.00 0.00
7:53 am 07:53 Clear 57 13.9 52 11.1 83 83 ESE 8 13 29.95 1014 10 16 0.00 0.00
8:53 am 08:53 Sunny 59 15 52 11.1 78 78 ESE 6 9 29.96 1015 10 16 0.00 0.00
9:53 am 09:53 Sunny 63 17.2 52 11.1 68 68 S 8 13 29.97 1015 10 16 0.00 0.00
10:53 am 10:53 Sunny 69 20.6 51 10.6 53 53 VRB 6 9 29.96 1015 10 16 0.00 0.00
11:53 am 11:53 Sunny 77 25 45 7.2 32 32 S 5 7 29.94 1014 10 16 0.00 0.00
12:53 pm 12:53 Sunny 82 27.8 44 6.7 26 26 S 7 11 29.92 1013 10 16 0.00 0.00
1:53 pm 13:53 Sunny 87 30.6 39 3.9 18 18 S 14 22 29.87 1012 10 16 0.00 0.00
2:53 pm 14:53 Sunny 88 31.1 38 3.3 17 17 S 15 24 29.83 1010 10 16 0.00 0.00
3:53 pm 15:53 Sunny 88 31.1 37 2.8 16 16 S 8 13 29.80 1009 10 16 0.00 0.00
4:53 pm 16:53 Sunny 90 32.2 36 2.2 15 15 SSW 8 13 29.78 1009 10 16 0.00 0.00
5:53 pm 17:53 Sunny 88 31.1 36 2.2 16 16 S 10 17 29.77 1008 10 16 0.00 0.00
6:53 pm 18:53 Sunny 82 27.8 36 2.2 19 19 SSE 7 11 29.78 1009 10 16 0.00 0.00
7:53 pm 19:53 Clear 74 23.3 36 2.2 25 25 SE 10 17 29.80 1009 10 16 0.00 0.00
8:53 pm 20:53 Clear 74 23.3 39 3.9 28 28 SE 10 17 29.80 1009 10 16 0.00 0.00
9:53 pm 21:53 Clear 71 21.7 47 8.3 42 42 SE 10 17 29.81 1010 10 16 0.00 0.00
10:53 pm 22:53 Clear 71 21.7 46 7.8 41 41 SE 12 19 29.82 1010 10 16 0.00 0.00
11:53 pm 23:53 Clear 70 21.1 55 12.8 59 59 SE 13 20 29.81 1010 10 16 0.00 0.00

Powered by AerisWeather